User: anonymous   Login
Location: Caltech
(34.1382°N, 118.1253°W)
Time: 03:10:51
(UTC-08:00)
Language:

Meteor 1-11 Rocket - Orbit

View from above orbital plane
View from above orbital plane
View from above satellite
View from above satellite

Ground track
Ground track

The orbit data is extracted from the following two-line orbital elements,

1 05918U 72022B   14329.50129777 -.00000040  00000-0 -31938-4 0  3069
2 05918 081.2352 150.0251 0059721 073.9332 342.2488 14.05735702186674
Epoch (UTC): 25 November 2014 12:01:52
Eccentricity: 0.0059721
inclination: 81.2352°
perigee height: 830 km
apogee height: 917 km
right ascension of ascending node: 150.0251°
argument of perigee: 73.9332°
revolutions per day: 14.05735702
mean anomaly at epoch: 342.2488°
orbit number at epoch: 18667

The dashed part of the orbit path shows where the satellite is in the earth's shadow,  

DLR